Milas, Turkey

10:05 AM +03 on August 21, 2017 (GMT +0300)
Bodrum

Weather History for LTFE - August, 2013

Change the Weather History Date:

Saturday, August 3, 2013

  Actual Average Record
Temperature  
Mean Temperature 84 °F -  
Max Temperature 98 °F - - ()
Min Temperature 69 °F - - ()
Cooling Degree Days 18    
Growing Degree Days 34 (Base 50)    
Moisture  
Dew Point 62 °F    
Average Humidity 51    
Maximum Humidity 83    
Minimum Humidity 22    
Precipitation  
Precipitation 0.00 in - - ()
Sea Level Pressure  
Sea Level Pressure 29.76 in    
Wind  
Wind Speed 5 mph ()    
Max Wind Speed 18 mph    
Max Gust Speed -    
Visibility 6.2 miles    
Events      
T = Trace of Precipitation, MM = Missing Value Source: Averaged Metar Reports

Daily Weather History Graph

Daily Weather History Graph

Search for Another Location

Airport or City:

Trip Planner

Search our weather history database for the weather conditions in past years. The results will help you decide how hot, cold, wet, or windy it might be!

Date:

Astronomy

Aug. 03, 2013 Rise Set
Actual Time 6:15 AM EEST 8:14 PM EEST
Civil Twilight 5:46 AM EEST 8:43 PM EEST
Nautical Twilight 5:11 AM EEST 9:18 PM EEST
Astronomical Twilight 4:34 AM EEST 9:55 PM EEST
Moon 3:09 AM EEST (8/3) 5:42 PM EEST (8/3)
Length of Visible Light 14h 56m
Length of Day
13h 59m
Waning Crescent, 11% of the Moon is Illuminated
Aug 3
Waning Crescent
Aug 7
New
Aug 14
First Quarter
Aug 21
Full
Aug 28
Last Quarter

Hourly Weather History & Observations

Time (EEST) Temp. Heat Index Dew Point Humidity Pressure Visibility Wind Dir Wind Speed Gust Speed Precip Events Conditions
12:20 AM 75.2 °F - 66.2 °F 73% 29.77 in - ESE 3.5 mph - N/A   Clear
12:50 AM 77.0 °F - 64.4 °F 65% 29.77 in - SE 3.5 mph - N/A   Clear
1:20 AM 75.2 °F - 64.4 °F 69% 29.77 in - SE 2.3 mph - N/A   Clear
1:50 AM 73.4 °F - 64.4 °F 73% 29.77 in - Variable 2.3 mph - N/A   Clear
2:20 AM 73.4 °F - 64.4 °F 73% 29.77 in - Variable 2.3 mph - N/A   Clear
2:50 AM 73.4 °F - 64.4 °F 73% 29.74 in - Variable 1.2 mph - N/A   Clear
3:20 AM 71.6 °F - 64.4 °F 78% 29.74 in - East 3.5 mph - N/A   Clear
3:50 AM 73.4 °F - 64.4 °F 73% 29.74 in - Variable 2.3 mph - N/A   Clear
4:20 AM 71.6 °F - 64.4 °F 78% 29.74 in - Variable 1.2 mph - N/A   Clear
4:50 AM 71.6 °F - 64.4 °F 78% 29.74 in - Variable 1.2 mph - N/A   Clear
5:20 AM 69.8 °F - 64.4 °F 83% 29.74 in - Calm Calm - N/A   Clear
5:50 AM 69.8 °F - 62.6 °F 78% 29.74 in - Variable 1.2 mph - N/A   Clear
6:20 AM 69.8 °F - 62.6 °F 78% 29.74 in - Variable 1.2 mph - N/A   Clear
6:50 AM 71.6 °F - 64.4 °F 78% 29.74 in - Calm Calm - N/A   Clear
7:20 AM 73.4 °F - 64.4 °F 73% 29.74 in - Variable 2.3 mph - N/A   Clear
7:50 AM 78.8 °F - 66.2 °F 65% 29.74 in - Variable 2.3 mph - N/A   Clear
8:20 AM 80.6 °F 83.2 °F 68.0 °F 65% 29.77 in - WNW 4.6 mph - N/A   Clear
8:50 AM 84.2 °F 86.6 °F 66.2 °F 55% 29.77 in - WNW 4.6 mph - N/A   Clear
9:20 AM 87.8 °F 89.4 °F 64.4 °F 46% 29.77 in - WNW 5.8 mph - N/A   Clear
9:50 AM 87.8 °F 88.5 °F 62.6 °F 43% 29.77 in - West 5.8 mph - N/A   Clear
10:20 AM 91.4 °F 90.7 °F 59.0 °F 34% 29.77 in - West 6.9 mph - N/A   Clear
10:50 AM 93.2 °F 93.3 °F 60.8 °F 34% 29.77 in - WNW 9.2 mph - N/A   Clear
11:20 AM 95.0 °F 94.4 °F 59.0 °F 30% 29.77 in - West 10.4 mph - N/A   Clear
11:50 AM 96.8 °F 95.1 °F 55.4 °F 25% 29.77 in - West 12.7 mph - N/A   Clear
12:20 PM 96.8 °F 95.1 °F 55.4 °F 25% 29.77 in - West 15.0 mph - N/A   Clear
12:50 PM 98.6 °F 96.4 °F 53.6 °F 22% 29.77 in - West 15.0 mph - N/A   Clear
1:20 PM 98.6 °F 96.4 °F 53.6 °F 22% 29.74 in - West 15.0 mph - N/A   Clear
1:50 PM 98.6 °F 96.4 °F 53.6 °F 22% 29.77 in 6.2 mi West 16.1 mph - N/A   Partly Cloudy
2:20 PM 96.8 °F 95.8 °F 57.2 °F 27% 29.74 in 6.2 mi West 16.1 mph - N/A   Partly Cloudy
2:50 PM 96.8 °F 95.8 °F 57.2 °F 27% 29.74 in 6.2 mi West 18.4 mph - N/A   Partly Cloudy
3:20 PM 96.8 °F 95.8 °F 57.2 °F 27% 29.74 in 6.2 mi West 18.4 mph - N/A   Partly Cloudy
3:50 PM 96.8 °F 95.8 °F 57.2 °F 27% 29.74 in 6.2 mi SW 15.0 mph - N/A   Partly Cloudy
4:20 PM 96.8 °F 95.8 °F 57.2 °F 27% 29.74 in 6.2 mi SW 16.1 mph - N/A   Partly Cloudy
4:50 PM 96.8 °F 95.8 °F 57.2 °F 27% 29.74 in 6.2 mi SW 11.5 mph - N/A   Partly Cloudy
5:20 PM 95.0 °F 94.4 °F 59.0 °F 30% 29.74 in 6.2 mi NW 5.8 mph - N/A   Partly Cloudy
5:50 PM 95.0 °F 95.2 °F 60.8 °F 32% 29.74 in 6.2 mi WSW 6.9 mph - N/A   Partly Cloudy
6:20 PM 91.4 °F 92.1 °F 62.6 °F 38% 29.74 in 6.2 mi SSW 11.5 mph - N/A   Partly Cloudy
6:50 PM 89.6 °F 91.1 °F 64.4 °F 43% 29.74 in - SSW 10.4 mph - N/A   Clear
7:20 PM 89.6 °F 90.1 °F 62.6 °F 40% 29.74 in - South 9.2 mph - N/A   Clear
7:50 PM 87.8 °F 88.5 °F 62.6 °F 43% 29.74 in - SSW 9.2 mph - N/A   Clear
8:20 PM 87.8 °F 88.5 °F 62.6 °F 43% 29.74 in - SSW 9.2 mph - N/A   Clear
8:50 PM 86.0 °F 86.6 °F 62.6 °F 45% 29.77 in - SW 6.9 mph - N/A   Clear
9:20 PM 84.2 °F 85.0 °F 62.6 °F 48% 29.77 in - Variable 4.6 mph - N/A   Clear
9:50 PM 82.4 °F 83.4 °F 62.6 °F 51% 29.77 in - Variable 3.5 mph - N/A   Clear
10:20 PM 78.8 °F - 62.6 °F 57% 29.80 in - Variable 2.3 mph - N/A   Clear
10:50 PM 80.6 °F 82.3 °F 64.4 °F 58% 29.80 in - West 3.5 mph - N/A   Clear
11:20 PM 78.8 °F - 66.2 °F 65% 29.80 in - NW 4.6 mph - N/A   Clear
11:50 PM 77.0 °F - 68.0 °F 74% 29.80 in - West 4.6 mph - N/A   Clear